カタログに戻る

STARLINK-36956

運用中通信VLEO
NORAD 68009·PAYLOAD·🇺🇸 United States

打ち上げ Feb 27, 2026 から Vandenberg Space Force Base

Loading…

次のパス (今後24時間)

TLE

最新Source: CelesTrak SupGP

元期: Sep 15, 2026, 02:40 UTC

1 68009C 26039Z   26258.11159722 -.00024237  00000+0 -87755-3 0  2586
2 68009  43.0041  59.1331 0002112 281.4197  72.9257 15.27600520    18

AllMySatでSTARLINK-36956をリアルタイム追跡

Download on the App Store